sat.trackr.live / text

‹ back to catalog

ONEWEB-0267

NORAD 48985 · 2021-060U

PAYLOAD ACTIVE UNKNOWN

§ Identity

Operator
Country
UK
Launch date
2021-07-01
Launch site
VOSTO
Launch vehicle
Mass (kg)
RCS (m²)

Purposes: comms

External: N2YO · Heavens-Above · Gunter

§ Orbital elements

Epoch: 2026-05-25T04:33:08.161056Z

Period
109.37 min
Inclination
87.9106°
Eccentricity
0.0001873
Mean motion
13.16593300 rev/d
Perigee alt
1,196.3 km
Apogee alt
1,199.2 km
Semi-major
7,575.9 km
B*
1.6817e-5
RAAN
233.3370°
Arg perigee
94.7739°
Mean anomaly
265.3606°
Rev number
23,656

§ Raw data

ONEWEB-02671 48985U 21060U   26145.18967779  .00000019  00000+0  16817-4 0  99912 48985  87.9106 233.3370 0001873  94.7739 265.3606 13.16593300236567

JSON: /api/v1/satellites/48985 · /tle

For live sub-satellite position, see the globe view (requires WebGL).

§ Visibility from observer

Set your observer location to see the next 7 days of passes ≥ 10°. The values pass through the URL so the page stays shareable.

No JS? Fill the form by hand. The geolocation button needs JavaScript.